Location: Berbisdorf
(50.7638°N, 12.9442°E)
Time: 12:46:29
(UTC+00:00)

GEOS 3 Rocket - Pass Details

Date: 07 June 2020
Orbit: 772 x 847 km, 115.0° (Epoch: 11 July)

Event Time Altitude Azimuth Distance (km) Brightness Sun altitude
Rises 01:49:55 0° 162° (SSE) 3,291 6.4 -8.2°
Reaches altitude 10° 01:52:20 10° 170° (S) 2,377 5.7 -7.9°
Maximum altitude 01:57:07 38° 238° (WSW) 1,236 4.1 -7.5°
Drops below altitude 10° 02:02:01 10° 306° (NW) 2,436 6.1 -7.0°
Sets 02:04:32 0° 314° (NW) 3,384 6.9 -6.7°
